WZZ7752 LCLK-EPWA

Flight info

Callsign WZZ7752
Flight time N/A
Altitude 38000
Route PHA M31 GENOS DCT PEDER M855 TOMBI UM855 AYT UQ23 OSVEL UL619 MAKOL DCT ARGES DCT KENIN DCT RAZEC DCT ORTEB DCT KONZI DCT LOGDA
Aircraft A20N/M-SDE2E3FGHIRWXY/LB1

Departure

Time 2026-05-05 12:46
Airport Larnaca International Airport (LCLK)

Arrival

Time N/A
Airport Warsaw Chopin Airport (EPWA)
Time Latitude Longitude Altitude Speed Heading
2026-05-05 12:24 34.88425 33.62991 21 ft 0 kts 221°
2026-05-05 12:40 34.88426 33.62992 21 ft 0 kts 221°
2026-05-05 12:40 34.88412 33.62977 22 ft 6 kts 225°
2026-05-05 12:41 34.88345 33.62976 22 ft 18 kts 129°
2026-05-05 12:41 34.88264 33.63092 15 ft 15 kts 102°
2026-05-05 12:41 34.88328 33.63200 13 ft 16 kts 45°
2026-05-05 12:41 34.88408 33.63298 14 ft 15 kts 45°
2026-05-05 12:42 34.88429 33.63408 14 ft 15 kts 136°
2026-05-05 12:42 34.88405 33.63434 13 ft 0 kts 138°
2026-05-05 12:44 34.88401 33.63439 13 ft 4 kts 138°
2026-05-05 12:44 34.88361 33.63482 13 ft 0 kts 136°
2026-05-05 12:45 34.88281 33.63502 13 ft 30 kts 217°
2026-05-05 12:45 34.87996 33.63155 13 ft 91 kts 226°
2026-05-05 12:45 34.87395 33.62420 8 ft 151 kts 225°
2026-05-05 12:45 34.86579 33.61416 265 ft 177 kts 225°
2026-05-05 12:46 34.85679 33.60315 769 ft 189 kts 225°
2026-05-05 12:46 34.84794 33.59173 1578 ft 187 kts 227°
2026-05-05 12:46 34.83935 33.58046 2308 ft 187 kts 227°
2026-05-05 12:46 34.83010 33.56845 2746 ft 203 kts 226°
2026-05-05 12:47 34.82000 33.55550 3143 ft 223 kts 226°
2026-05-05 12:47 34.80875 33.54102 3607 ft 242 kts 226°
2026-05-05 12:47 34.79680 33.52568 4139 ft 258 kts 226°
2026-05-05 12:47 34.78448 33.50991 4914 ft 264 kts 227°
2026-05-05 12:48 34.77182 33.49369 5771 ft 266 kts 227°
2026-05-05 12:48 34.75922 33.47757 6588 ft 269 kts 227°
2026-05-05 12:48 34.74626 33.46099 7405 ft 273 kts 227°
2026-05-05 12:48 34.73320 33.44431 8207 ft 276 kts 227°
2026-05-05 12:49 34.71995 33.42740 8993 ft 279 kts 227°
2026-05-05 12:49 34.70668 33.41048 9757 ft 282 kts 227°
2026-05-05 12:49 34.69315 33.39305 10474 ft 287 kts 230°
2026-05-05 12:49 34.68272 33.37202 10863 ft 302 kts 251°
2026-05-05 12:50 34.67948 33.34641 11451 ft 310 kts 270°
2026-05-05 12:50 34.68042 33.32041 12207 ft 312 kts 272°
2026-05-05 12:50 34.68176 33.29396 12928 ft 315 kts 272°
2026-05-05 12:50 34.68306 33.26736 13659 ft 317 kts 272°
2026-05-05 12:51 34.68425 33.24093 14377 ft 319 kts 272°
2026-05-05 12:51 34.68539 33.21395 15089 ft 321 kts 272°
2026-05-05 12:51 34.68647 33.18712 15779 ft 323 kts 271°
2026-05-05 12:51 34.68757 33.15958 16466 ft 324 kts 271°
2026-05-05 12:52 34.68864 33.13229 17127 ft 326 kts 271°
2026-05-05 12:52 34.68970 33.10489 17768 ft 328 kts 271°
2026-05-05 12:52 34.69074 33.07751 18401 ft 329 kts 271°
2026-05-05 12:52 34.69180 33.04963 19037 ft 330 kts 272°
2026-05-05 12:53 34.69286 33.02189 19652 ft 332 kts 272°
2026-05-05 12:53 34.69392 32.99405 20261 ft 333 kts 272°
2026-05-05 12:53 34.69498 32.96605 20861 ft 334 kts 272°
2026-05-05 12:53 34.69605 32.93784 21393 ft 337 kts 272°
2026-05-05 12:54 34.69824 32.87974 22272 ft 347 kts 273°
2026-05-05 12:54 34.69935 32.85052 22834 ft 349 kts 273°
2026-05-05 12:54 34.70047 32.82107 23374 ft 350 kts 273°
2026-05-05 12:55 34.70156 32.79159 23891 ft 352 kts 272°
2026-05-05 12:55 34.70265 32.76190 24403 ft 353 kts 272°
2026-05-05 12:55 34.70372 32.73243 24896 ft 355 kts 272°
2026-05-05 12:55 34.70480 32.70253 25378 ft 356 kts 272°
2026-05-05 12:56 34.70587 32.67227 25851 ft 358 kts 272°
2026-05-05 12:56 34.70694 32.64228 26302 ft 359 kts 272°
2026-05-05 12:56 34.70801 32.61198 26742 ft 361 kts 272°
2026-05-05 12:56 34.70908 32.58129 27171 ft 362 kts 272°
2026-05-05 12:57 34.71013 32.55086 27575 ft 364 kts 272°
2026-05-05 12:57 34.71095 32.52035 27963 ft 365 kts 270°
2026-05-05 12:57 34.71050 32.48945 28288 ft 368 kts 268°
2026-05-05 12:57 34.70896 32.45798 28505 ft 373 kts 266°
2026-05-05 12:58 34.70732 32.42648 28799 ft 376 kts 266°
2026-05-05 12:58 34.70567 32.39513 29125 ft 377 kts 266°
2026-05-05 12:58 34.70400 32.36348 29442 ft 378 kts 266°
2026-05-05 12:58 34.70231 32.33152 29762 ft 379 kts 266°
2026-05-05 12:59 34.70062 32.29974 30071 ft 380 kts 266°
2026-05-05 12:59 34.69890 32.26750 30365 ft 381 kts 266°
2026-05-05 12:59 34.69720 32.23563 30637 ft 382 kts 266°
2026-05-05 13:00 34.69372 32.17084 31152 ft 385 kts 266°
2026-05-05 13:00 34.69197 32.13873 31392 ft 386 kts 266°
2026-05-05 13:01 34.68664 32.04173 32352 ft 381 kts 265°
2026-05-05 13:01 34.68495 32.00969 32669 ft 380 kts 267°
2026-05-05 13:01 34.68493 31.97759 32968 ft 379 kts 271°
2026-05-05 13:01 34.68713 31.94588 33257 ft 379 kts 275°
2026-05-05 13:02 34.69152 31.91442 33543 ft 379 kts 279°
2026-05-05 13:02 34.69805 31.88363 33811 ft 380 kts 283°
2026-05-05 13:02 34.70670 31.85357 34070 ft 381 kts 287°
2026-05-05 13:02 34.71757 31.82409 34310 ft 383 kts 291°
2026-05-05 13:03 34.73040 31.79560 34531 ft 385 kts 294°
2026-05-05 13:03 34.74385 31.76756 34762 ft 384 kts 295°
2026-05-05 13:03 34.75743 31.73952 34970 ft 384 kts 295°
2026-05-05 13:03 34.77094 31.71164 35179 ft 384 kts 295°
2026-05-05 13:04 34.78433 31.68404 35373 ft 383 kts 295°
2026-05-05 13:04 34.79785 31.65616 35563 ft 383 kts 295°
2026-05-05 13:04 34.81128 31.62849 35752 ft 382 kts 295°
2026-05-05 13:04 34.82476 31.60068 35941 ft 382 kts 295°
2026-05-05 13:05 34.83818 31.57299 36115 ft 381 kts 295°
2026-05-05 13:05 34.85175 31.54498 36272 ft 381 kts 295°
2026-05-05 13:05 34.86512 31.51735 36411 ft 382 kts 295°
2026-05-05 13:05 34.87843 31.48981 36559 ft 381 kts 295°
2026-05-05 13:06 34.89193 31.46186 36700 ft 382 kts 295°
2026-05-05 13:06 34.90529 31.43420 36745 ft 384 kts 295°
2026-05-05 13:06 34.93250 31.37774 36794 ft 391 kts 295°
2026-05-05 13:07 34.96019 31.32008 36871 ft 397 kts 295°
2026-05-05 13:07 34.98810 31.26179 36968 ft 403 kts 295°
2026-05-05 13:08 35.01653 31.20247 37070 ft 409 kts 296°
2026-05-05 13:08 35.04551 31.14200 37166 ft 415 kts 297°
2026-05-05 13:09 35.07468 31.08128 37277 ft 420 kts 297°
2026-05-05 13:09 35.10438 31.01922 37376 ft 425 kts 297°
2026-05-05 13:10 35.13594 30.95824 37454 ft 433 kts 306°
2026-05-05 13:10 35.17969 30.90717 37638 ft 440 kts 322°
2026-05-05 13:11 35.20596 30.88770 37741 ft 444 kts 330°
2026-05-05 13:11 35.23403 30.87324 37840 ft 447 kts 339°
2026-05-05 13:11 35.29557 30.85967 37960 ft 453 kts 355°
2026-05-05 13:12 35.35804 30.85779 37964 ft 454 kts 357°
2026-05-05 13:12 35.42086 30.85632 37960 ft 454 kts 356°
2026-05-05 13:13 35.48404 30.85443 37957 ft 454 kts 356°
2026-05-05 13:13 35.54652 30.85242 37956 ft 453 kts 356°
2026-05-05 13:14 35.60944 30.85036 37957 ft 454 kts 356°
2026-05-05 13:14 35.67218 30.84708 37957 ft 453 kts 355°
2026-05-05 13:15 35.73471 30.84309 37957 ft 453 kts 355°
2026-05-05 13:15 35.79746 30.83922 37956 ft 453 kts 355°
2026-05-05 13:16 35.86053 30.83540 37956 ft 453 kts 355°
2026-05-05 13:16 35.92304 30.83165 37957 ft 453 kts 355°
2026-05-05 13:17 35.98558 30.82789 37957 ft 453 kts 355°
2026-05-05 13:17 36.04859 30.82414 37956 ft 453 kts 355°
2026-05-05 13:18 36.11132 30.82186 37956 ft 453 kts 356°
2026-05-05 13:18 36.17380 30.81997 37957 ft 453 kts 356°
2026-05-05 13:19 36.23674 30.81796 37957 ft 453 kts 356°
2026-05-05 13:19 36.29971 30.81589 37956 ft 453 kts 356°
2026-05-05 13:20 36.36234 30.81382 37957 ft 453 kts 356°
2026-05-05 13:20 36.42519 30.81172 37957 ft 453 kts 356°
2026-05-05 13:21 36.48762 30.80952 37957 ft 453 kts 356°
2026-05-05 13:21 36.55057 30.80732 37957 ft 453 kts 356°
2026-05-05 13:22 36.61328 30.80515 37957 ft 453 kts 356°
2026-05-05 13:22 36.67621 30.80298 37957 ft 453 kts 356°
2026-05-05 13:23 36.73861 30.80084 37957 ft 453 kts 356°
2026-05-05 13:23 36.80154 30.79868 37957 ft 453 kts 356°
2026-05-05 13:24 36.86401 30.79653 37957 ft 453 kts 356°
2026-05-05 13:24 36.92695 30.79642 37956 ft 454 kts
2026-05-05 13:25 36.98950 30.80374 37956 ft 455 kts
2026-05-05 13:25 37.05252 30.81287 37956 ft 457 kts
2026-05-05 13:26 37.11530 30.82190 37954 ft 459 kts
2026-05-05 13:26 37.17867 30.83086 37956 ft 460 kts
2026-05-05 13:27 37.24202 30.83980 37957 ft 460 kts
2026-05-05 13:27 37.30557 30.84880 37957 ft 460 kts
2026-05-05 13:28 37.36890 30.85780 37957 ft 460 kts
2026-05-05 13:28 37.43185 30.86676 37957 ft 460 kts
2026-05-05 13:29 37.49544 30.87583 37959 ft 460 kts
2026-05-05 13:29 37.55855 30.88484 37971 ft 460 kts
2026-05-05 13:30 37.62194 30.89392 37989 ft 460 kts
2026-05-05 13:30 37.68505 30.90296 38002 ft 460 kts
2026-05-05 13:31 37.74859 30.91209 38008 ft 459 kts
2026-05-05 13:31 37.81179 30.92118 38009 ft 459 kts
2026-05-05 13:32 37.87504 30.93029 38010 ft 459 kts
2026-05-05 13:32 37.93837 30.93944 38010 ft 459 kts
2026-05-05 13:33 38.00127 30.94854 38010 ft 459 kts
2026-05-05 13:33 38.06464 30.95772 38010 ft 459 kts
2026-05-05 13:34 38.12793 30.96690 38009 ft 459 kts
2026-05-05 13:34 38.19091 30.97604 38009 ft 459 kts
2026-05-05 13:35 38.25414 30.98527 38010 ft 459 kts
2026-05-05 13:35 38.31765 30.99456 38010 ft 459 kts
2026-05-05 13:36 38.38058 31.00378 38009 ft 459 kts
2026-05-05 13:36 38.44375 31.00826 38009 ft 455 kts 355°
2026-05-05 13:37 38.50637 30.99980 38009 ft 451 kts 345°
2026-05-05 13:37 38.56623 30.97873 38009 ft 446 kts 336°
2026-05-05 13:38 38.62373 30.95112 38010 ft 445 kts 335°
2026-05-05 13:38 38.68153 30.92294 38009 ft 445 kts 335°
2026-05-05 13:39 38.73906 30.89506 38010 ft 445 kts 335°
2026-05-05 13:39 38.79692 30.86710 38013 ft 445 kts 335°
2026-05-05 13:40 38.85466 30.83918 38021 ft 445 kts 335°
2026-05-05 13:40 38.91199 30.81142 38031 ft 445 kts 335°
2026-05-05 13:41 38.96983 30.78336 38036 ft 444 kts 335°
2026-05-05 13:41 39.02717 30.75551 38038 ft 443 kts 335°
2026-05-05 13:42 39.08446 30.72762 38038 ft 442 kts 335°
2026-05-05 13:42 39.14167 30.69982 38037 ft 442 kts 335°
2026-05-05 13:43 39.19909 30.67190 38038 ft 442 kts 335°
2026-05-05 13:43 39.25658 30.64382 38038 ft 442 kts 335°
2026-05-05 13:44 39.31371 30.61582 38038 ft 442 kts 335°
2026-05-05 13:44 39.37092 30.58774 38038 ft 442 kts 335°
2026-05-05 13:45 39.42805 30.55964 38038 ft 442 kts 335°
2026-05-05 13:45 39.48540 30.53139 38038 ft 442 kts 335°
2026-05-05 13:46 39.54245 30.50307 38038 ft 441 kts 333°
2026-05-05 13:46 39.59842 30.47133 38038 ft 440 kts 331°
2026-05-05 13:47 39.65407 30.43880 38038 ft 440 kts 331°
2026-05-05 13:47 39.70947 30.40641 38038 ft 440 kts 331°
2026-05-05 13:48 39.76505 30.37392 38038 ft 440 kts 332°
2026-05-05 13:48 39.82064 30.34137 38040 ft 440 kts 331°
2026-05-05 13:49 39.87631 30.30847 38038 ft 439 kts 331°
2026-05-05 13:49 39.93164 30.27584 38038 ft 440 kts 331°
2026-05-05 13:50 39.98726 30.24309 38038 ft 439 kts 331°
2026-05-05 13:50 40.04251 30.21052 38039 ft 439 kts 331°
2026-05-05 13:51 40.09805 30.17773 38041 ft 439 kts 331°
2026-05-05 13:51 40.15339 30.14517 38044 ft 439 kts 331°
2026-05-05 13:52 40.20913 30.11230 38049 ft 439 kts 331°
2026-05-05 13:52 40.26445 30.07953 38054 ft 439 kts 331°
2026-05-05 13:53 40.31979 30.04666 38059 ft 439 kts 331°
2026-05-05 13:53 40.37505 30.01375 38063 ft 439 kts 331°
2026-05-05 13:54 40.43044 29.98071 38064 ft 439 kts 331°
2026-05-05 13:54 40.48580 29.94762 38064 ft 439 kts 331°
2026-05-05 13:55 40.54131 29.91439 38064 ft 439 kts 331°
2026-05-05 13:55 40.59657 29.88125 38064 ft 439 kts 331°
2026-05-05 13:56 40.65158 29.84821 38064 ft 439 kts 331°
2026-05-05 13:56 40.70679 29.81499 38064 ft 439 kts 331°
2026-05-05 13:57 40.76203 29.78169 38064 ft 439 kts 331°
2026-05-05 13:57 40.81707 29.74845 38064 ft 439 kts 331°
2026-05-05 13:58 40.87237 29.71498 38064 ft 438 kts 331°
2026-05-05 13:58 40.92725 29.68171 38064 ft 439 kts 331°
2026-05-05 13:59 41.01019 29.63131 38066 ft 438 kts 331°
2026-05-05 14:00 41.09199 29.58149 38064 ft 439 kts 331°
2026-05-05 14:00 41.14688 29.54811 38064 ft 439 kts 331°
2026-05-05 14:01 41.16038 29.53990 38064 ft 439 kts 331°
2026-05-05 14:01 41.20324 29.51618 38071 ft 441 kts 336°
2026-05-05 14:02 41.26178 29.49189 38065 ft 444 kts 340°
2026-05-05 14:02 41.32093 29.46975 38064 ft 444 kts 340°
2026-05-05 14:03 41.37978 29.44758 38064 ft 444 kts 340°
2026-05-05 14:03 41.43897 29.42510 38064 ft 444 kts 340°
2026-05-05 14:04 41.49835 29.40246 38065 ft 444 kts 340°
2026-05-05 14:04 41.55728 29.37994 38064 ft 444 kts 340°
2026-05-05 14:05 41.61629 29.35734 38064 ft 444 kts 340°
2026-05-05 14:05 41.67543 29.33451 38065 ft 443 kts 339°
2026-05-05 14:06 41.73438 29.31161 38064 ft 443 kts 339°
2026-05-05 14:06 41.79350 29.28877 38064 ft 443 kts 340°
2026-05-05 14:07 41.85239 29.26605 38065 ft 443 kts 340°
2026-05-05 14:07 41.91155 29.24320 38065 ft 443 kts 340°
2026-05-05 14:08 41.97035 29.22047 38065 ft 443 kts 340°
2026-05-05 14:08 42.02936 29.19763 38064 ft 443 kts 340°
2026-05-05 14:09 42.08826 29.17464 38063 ft 442 kts 338°
2026-05-05 14:09 42.14496 29.14525 38064 ft 438 kts 330°
2026-05-05 14:10 42.19745 29.10560 38065 ft 434 kts 322°
2026-05-05 14:10 42.24477 29.05689 38065 ft 430 kts 315°
2026-05-05 14:11 42.28969 29.00444 38064 ft 430 kts 314°
2026-05-05 14:11 42.33478 28.95150 38064 ft 430 kts 315°
2026-05-05 14:12 42.37987 28.89861 38064 ft 432 kts 315°
2026-05-05 14:12 42.42519 28.84544 38064 ft 434 kts 315°
2026-05-05 14:13 42.47068 28.79199 38064 ft 435 kts 315°
2026-05-05 14:13 42.51611 28.73855 38064 ft 435 kts 315°
2026-05-05 14:14 42.56187 28.68460 38064 ft 435 kts 315°
2026-05-05 14:14 42.60708 28.63118 38064 ft 435 kts 315°
2026-05-05 14:15 42.65275 28.57710 38064 ft 435 kts 315°
2026-05-05 14:15 42.69815 28.52324 38064 ft 435 kts 315°
2026-05-05 14:16 42.74327 28.46961 38064 ft 435 kts 315°
2026-05-05 14:16 42.78876 28.41540 38064 ft 435 kts 315°
2026-05-05 14:17 42.83426 28.36108 38064 ft 435 kts 315°
2026-05-05 14:17 42.87945 28.30687 38065 ft 434 kts 315°
2026-05-05 14:18 42.92456 28.25256 38067 ft 433 kts 315°
2026-05-05 14:18 42.96916 28.19889 38065 ft 430 kts 315°
2026-05-05 14:19 43.01382 28.14508 38065 ft 428 kts 316°
2026-05-05 14:19 43.05814 28.09166 38064 ft 427 kts 316°
2026-05-05 14:20 43.10257 28.03802 38063 ft 425 kts 316°
2026-05-05 14:20 43.14688 27.98470 38063 ft 426 kts 316°
2026-05-05 14:21 43.19109 27.93135 38060 ft 426 kts 316°
2026-05-05 14:21 43.23528 27.87770 38047 ft 426 kts 316°
2026-05-05 14:22 43.27948 27.82395 38042 ft 427 kts 316°
2026-05-05 14:22 43.32392 27.76969 38040 ft 426 kts 316°
2026-05-05 14:23 43.36803 27.71573 38039 ft 426 kts 316°
2026-05-05 14:23 43.37521 27.70694 38039 ft 426 kts 316°
2026-05-05 14:24 43.41701 27.65570 38039 ft 426 kts 316°
2026-05-05 14:24 43.46069 27.60159 37908 ft 426 kts 315°
2026-05-05 14:25 43.50413 27.54820 38016 ft 426 kts 316°
2026-05-05 14:25 43.54820 27.49410 38033 ft 426 kts 316°
2026-05-05 14:26 43.59237 27.43960 38039 ft 426 kts 316°
2026-05-05 14:26 43.63598 27.38565 38039 ft 426 kts 316°
2026-05-05 14:27 43.67965 27.33143 38039 ft 426 kts 315°
2026-05-05 14:27 43.72342 27.27678 38038 ft 425 kts 315°
2026-05-05 14:28 43.76742 27.22183 38040 ft 426 kts 315°
2026-05-05 14:28 43.81120 27.16716 38038 ft 426 kts 315°
2026-05-05 14:29 43.85471 27.11277 38040 ft 426 kts 315°
2026-05-05 14:29 43.89869 27.05765 38036 ft 427 kts 315°
2026-05-05 14:30 43.94238 27.00280 38032 ft 427 kts 315°
2026-05-05 14:30 43.98627 26.94757 38024 ft 427 kts 315°
2026-05-05 14:31 44.03013 26.89228 38022 ft 428 kts 315°
2026-05-05 14:31 44.07913 26.83119 38015 ft 429 kts 318°
2026-05-05 14:32 44.12608 26.78063 38010 ft 430 kts 321°
2026-05-05 14:32 44.17417 26.73111 38010 ft 430 kts 321°
2026-05-05 14:33 44.22192 26.68162 38007 ft 429 kts 321°
2026-05-05 14:33 44.26964 26.63195 38010 ft 429 kts 321°
2026-05-05 14:34 44.31716 26.58231 38009 ft 430 kts 321°
2026-05-05 14:34 44.36498 26.53227 38009 ft 429 kts 321°
2026-05-05 14:35 44.41251 26.48242 38011 ft 430 kts 321°
2026-05-05 14:35 44.46012 26.43233 38012 ft 429 kts 321°
2026-05-05 14:36 44.50725 26.38267 38013 ft 430 kts 321°
2026-05-05 14:36 44.55484 26.33239 38006 ft 429 kts 320°
2026-05-05 14:37 44.60210 26.28214 38010 ft 430 kts 320°
2026-05-05 14:37 44.64968 26.23157 38010 ft 429 kts 320°
2026-05-05 14:38 44.69692 26.18135 38013 ft 429 kts 320°
2026-05-05 14:38 44.74439 26.13075 38011 ft 430 kts 320°
2026-05-05 14:39 44.79180 26.08019 38008 ft 429 kts 320°
2026-05-05 14:39 44.83931 26.02937 38007 ft 430 kts 320°
2026-05-05 14:40 44.88669 25.97862 38011 ft 429 kts 320°
2026-05-05 14:40 44.93399 25.92781 38008 ft 429 kts 320°
2026-05-05 14:41 44.98100 25.87720 38011 ft 429 kts 320°
2026-05-05 14:41 45.02845 25.82608 38009 ft 428 kts 320°
2026-05-05 14:42 45.07539 25.77541 38014 ft 428 kts 319°
2026-05-05 14:42 45.12244 25.72460 38010 ft 426 kts 319°
2026-05-05 14:43 45.16953 25.67376 38012 ft 425 kts 319°
2026-05-05 14:43 45.21616 25.62318 38010 ft 423 kts 319°
2026-05-05 14:44 45.26244 25.57275 38012 ft 424 kts 319°
2026-05-05 14:44 45.30904 25.52188 38013 ft 425 kts 319°
2026-05-05 14:45 45.35581 25.47071 38011 ft 424 kts 319°
2026-05-05 14:45 45.40265 25.41930 38012 ft 425 kts 319°
2026-05-05 14:46 45.44929 25.36806 38008 ft 425 kts 319°
2026-05-05 14:46 45.49578 25.31677 38003 ft 425 kts 318°
2026-05-05 14:47 45.54232 25.26512 38000 ft 425 kts 318°
2026-05-05 14:47 45.58880 25.21356 37992 ft 425 kts 318°
2026-05-05 14:48 45.63523 25.16205 37987 ft 425 kts 318°
2026-05-05 14:48 45.68187 25.11027 37985 ft 425 kts 318°
2026-05-05 14:49 45.72820 25.05865 37986 ft 424 kts 318°
2026-05-05 14:49 45.77470 25.00680 37982 ft 424 kts 318°
2026-05-05 14:50 45.82101 24.95497 37984 ft 425 kts 318°
2026-05-05 14:50 45.86738 24.90301 37984 ft 424 kts 318°
2026-05-05 14:51 45.91365 24.85104 37984 ft 425 kts 318°
2026-05-05 14:51 45.96010 24.79874 37985 ft 425 kts 318°
2026-05-05 14:52 46.00655 24.74634 37985 ft 425 kts 318°
2026-05-05 14:52 46.05268 24.69418 37984 ft 425 kts 318°
2026-05-05 14:53 46.09892 24.64180 37983 ft 425 kts 318°
2026-05-05 14:53 46.14511 24.58963 37984 ft 424 kts 318°
2026-05-05 14:54 46.19147 24.53713 37985 ft 425 kts 318°
2026-05-05 14:54 46.23795 24.48421 37986 ft 426 kts 318°
2026-05-05 14:55 46.28425 24.43132 37985 ft 425 kts 318°
2026-05-05 14:55 46.33039 24.37850 37984 ft 425 kts 318°
2026-05-05 14:56 46.37624 24.32578 37983 ft 424 kts 317°
2026-05-05 14:56 46.42224 24.27260 37984 ft 424 kts 317°
2026-05-05 14:57 46.46830 24.21938 37983 ft 424 kts 317°
2026-05-05 14:57 46.51433 24.16612 37983 ft 424 kts 317°